Como, CO (80432)

8:56 AM MST on February 14, 2016 (GMT -0700)
Office of Jefferson Real Estate | | Change Station
CLOSE
Current Station
Personal Weather Station
Location: Jefferson, CO
Elevation: 9528 ft
Nearby Weather Stations
Active Advisory: Winter Weather Advisory Active Notice: Public Information Statement

Elev 9528 ft 39.38 °N, 105.80 °W | Updated 10 minutes ago

Mostly Cloudy
Mostly Cloudy
29.8 °F
Feels Like 16 °F
N
23.3
Wind Variable Wind from WSW

Today
High -- | Low -- °F
--% Chance of Precip.
Yesterday
High -- | Low -- °F
Precip. -- in
Pressure 29.95 in
Visibility 10.0 miles
Clouds Few 6500 ft
Windchill 16 °F
Dew Point 11 °F
Humidity 45%
Rainfall 0.00 in
Snow Depth Not available.
6:57 AM 5:38 PM
Waxing Crescent, 43% visible
METAR KLXV 141553Z AUTO 34010G15KT 300V010 10SM FEW065 M03/M14 A3010 RMK AO2 SLP141 T10281144
Pressure 29.95 in
Visibility 10.0 miles
Clouds Few 6500 ft
Windchill 16 °F
Dew Point 11 °F
Humidity 45%
Rainfall 0.00 in
Snow Depth Not available.
6:57 AM 5:38 PM
Waxing Crescent, 43% visible
METAR KLXV 141553Z AUTO 34010G15KT 300V010 10SM FEW065 M03/M14 A3010 RMK AO2 SLP141 T10281144

10-Day Weather Forecast

Almanac

Astronomy

Feb. 14, 2016 Rise Set
Actual Time
Civil Twilight
Nautical Twilight
Astronomical Twilight
Moon
Length of Visible Light
Length of Day
Tomorrow will be .
, % of the Moon is Illuminated

Today's Extremes

State Highs State Lows

Community

WunderPhotos

Upload Photos

1,892,802 photos uploaded!

WunderBlog® & News

Nearby

Air Quality

  Air Quality AQ Index Pollutant
Not available.

Snow Depth

Station Depth Elevation

Earthquake Activity

City Distance Mag. Time & Date
Minimum magnitude displayed is 2.5.

Coastal Water Temperatures

Place Temperature

Stations

Nearby Weather Stations

Station Location Temp. Windchill Dew Point Humidity Wind Precip. Elev Updated Type
                   

Watches & Warnings

Winter Weather Advisory
Issued: 4:18 AM MST Feb. 14, 2016 – National Weather Service

... Winter Weather Advisory in effect from noon today to 6 am MST
Monday...

The National Weather Service in Denver has issued a Winter
Weather Advisory for snow and blowing snow..which is in effect
from noon today to 6 am MST Monday.

* Timing... snow will increase by early afternoon and continue this
evening before decreasing late tonight.

* Snow accumulations... 4 to 8 inches.

* Wind/visibility... west 25 to 35 mph with gusts to 50 mph.
Visibilities will be less than one quarter mile at times in
blowing snow.

* Impacts... persons planning travel into the Colorado high country
should be prepared for hazardous driving conditions... slow
travel... snow packed roads... and poor visibility in spots.


Precautionary/preparedness actions...

A Winter Weather Advisory for snow means that periods of snow
will cause primarily travel difficulties. Be prepared for snow
covered roads and limited visibilities... and use caution while
driving.